Startpagina
METAR-TAF:

METAR-TAF

Vliegvelden :

K13-a, Nederland

Productieplatform

breedte: 53-13-04N, lengte: 3-13-13E, hoogte: 31 m

Actueel weer

Dit bericht is 46 minuten geleden gemaakt, om 06:55 UTC
Wind 14 kt uit het westnoordwesten met uitschieters tot 18 kt
Temperatuur 9°C
Vochtigheid 57%
Druk 1006 hPa

METAR: EHJR 240655Z AUTO 29014G18KT //// ///////// 09/01 Q1006 W12/H15

Tijdstip: 08:41 (07:41 UTC)


TAF: ontbreekt

Waarnemingen en weersverwachtingen van meer dan 4000 vliegvelden (METAR en TAF).

De beschikbare stations zijn de gele en rode punten op de kaart.

Ga met uw muis naar het station om de naam te zien.

Klik dan om waarnemingen en weersverwachtingen te zien.

kaart wijzigen: klik op de groene knoppen met een zwart kruis om in te zoomen, op de groene knop met een streepje om uit te zoomen of op de groene pijlen voor aangrenzende kaarten.


METAR-TAF: